Weather in Daşköpri

Turkmenistan     36°16′19″N   62°38′57″E
В апреле 2022 года жителям России запретили посещать сайт meteo.paraplan.net по решению Генеральной прокуратуры. Аудитория сайта уменьшилась в 10 раз. Владельцы сайта не видят смысла в поддержке погодного сервера в таких условиях. Сайт будет закрыт в октябре.
temp.,
°C
wind,
m/s
gust,
m/s
humid.,
%
clouds,
%
prec.,
mm/h
press.,
hPa
HPBL,
m
5 october, wed
wed523:00+19ene47220 0.0 101999
02:00+17ne33250 0.0 101921
05:00+15ne22270 0.0 102012
08:00+18n11230 0.0 102120
11:00+25n34130 0.0 10211092
14:00+27n6690 0.0 10191736
17:00+26n7770 0.0 10191582
20:00+18nne44100 0.0 102126
6 october, thu
thu623:00+16nne44100 0.0 102129
02:00+13n23130 0.0 102011
05:00+10n22170 0.0 102010
08:00+12nw22180 0.0 102242
11:00+19nw33130 0.0 1021649
14:00+23nnw4490 0.0 10181119
17:00+23n5580 0.0 10181188
20:00+16nne33140 0.0 101912
7 october, fri
fri723:00+14n22190 0.0 101911
02:00+11n11240 0.0 101910
05:00+10n00260 0.0 101910
08:00+14nnw11210 0.0 102110
11:00+20nw12140 0.0 1021821
14:00+24nnw3390 0.0 10181467
17:00+24n5590 0.0 10181474
20:00+17n44140 0.0 102018
8 october, sat
sat823:00+14ne22160 0.0 102111
02:00+12nne11180 0.0 102011
05:00+11n11280 0.0 102111
08:00+15nnw11150 0.0 102211
11:00+23nne2380 0.0 10221068
14:00+26n4570 0.0 10192101
17:00+26n6670 0.0 10181799
20:00+18nne43130 0.0 102018
9 october, sun
sun923:00+16ne33150 0.0 102012
02:00+14ne22170 0.0 102011
05:00+12ne11190 0.0 102011
08:00+15ese01160 0.0 102111
11:00+23nw23100 0.0 1021809
14:00+27n4470 0.0 10181995
17:00+25n6580 0.0 10181746
20:00+18nne44120 0.0 102023